INTELSAT 40E (IS-40E)

Last updated on Mon Sep 21 2026 00:03:02 GMT+0000 (Coordinated Universal Time)

1 56174U 23052A 26263.04553926 -.00000179 00000+0 00000+0 0 9994 2 56174 0.0093 151.4093 0002653 29.2806 103.6608 1.00271929 12775
UTC large
Height (km)
Speed (km/s)
/
Latitude / Longitude
Inclination (degrees)
Orbital Period (minutes)
Azimuth
Elevation
Range (km)
Doppler Factor

Next 0 passes for location: London (51.5072 / 0.1276)

No passes found over London.
INTELSAT 40E (IS-40E)